Weather History for Unalakleet, AK

Change the Weather History Date:

Friday, February 28, 2014

  Actual Average Record
Temperature  
Mean Temperature 32 °F -  
Max Temperature 37 °F 17 °F 40 °F (1960)
Min Temperature 28 °F -2 °F -50 °F (1956)
Degree Days  
Heating Degree Days 32    
Moisture  
Dew Point 25 °F    
Average Humidity 71    
Maximum Humidity 93    
Minimum Humidity 52    
Precipitation  
Precipitation 0.00 in - - ()
Sea Level Pressure  
Sea Level Pressure 29.88 in    
Wind  
Wind Speed 17 mph (ESE)    
Max Wind Speed 25 mph    
Max Gust Speed 30 mph    
Visibility 10 miles    
Events      
Averages and records for this station are not official NWS values.
T = Trace of Precipitation, MM = Missing Value Source: NWS Daily Summary

Daily Weather History Graph

Daily Weather History Graph

Search for Another Location

Airport:

Trip Planner

Search our weather history database for the weather conditions in past years. The results will help you decide how hot, cold, wet, or windy it might be!

Date:

Astronomy

Feb. 28, 2014 Rise Set
Actual Time 8:52 AM AKST 7:00 PM AKST
Civil Twilight 8:04 AM AKST 7:47 PM AKST
Nautical Twilight 7:10 AM AKST 8:42 PM AKST
Astronomical Twilight 6:14 AM AKST 9:39 PM AKST
Moon 8:15 AM AKST (2/28) 7:00 PM AKST (2/28)
Length of Visible Light 11h 43m
Length of Day
10h 07m
Waning Crescent, 0% of the Moon is Illuminated
Feb 28
Waning Crescent
Feb 28
New
Mar 8
First Quarter
Mar 16
Full
Mar 23
Last Quarter

Hourly Weather History & Observations

Time (AKST) Temp. Windchill Dew Point Humidity Pressure Visibility Wind Dir Wind Speed Gust Speed Precip Events Conditions
12:16 AM 33.8 °F 21.6 °F 17.6 °F 52% 29.72 in 10.0 mi East 23.0 mph 28.8 mph N/A   Overcast
12:36 AM 33.8 °F 21.3 °F 17.6 °F 52% 29.72 in 10.0 mi East 24.2 mph 28.8 mph N/A   Overcast
12:56 AM 33.8 °F 22.5 °F 17.6 °F 52% 29.74 in 10.0 mi East 19.6 mph 25.3 mph N/A   Overcast
1:16 AM 33.8 °F 22.5 °F 17.6 °F 52% 29.75 in 10.0 mi East 19.6 mph - N/A   Overcast
1:36 AM 33.8 °F 21.6 °F 19.4 °F 56% 29.75 in 10.0 mi East 23.0 mph - N/A   Overcast
1:56 AM 33.8 °F 22.2 °F 19.4 °F 56% 29.76 in 10.0 mi East 20.7 mph - N/A   Overcast
2:16 AM 33.8 °F 23.9 °F 19.4 °F 56% 29.77 in 10.0 mi NE 15.0 mph - N/A   Mostly Cloudy
2:36 AM 33.8 °F 24.8 °F 19.4 °F 56% 29.78 in 10.0 mi ENE 12.7 mph 20.7 mph N/A   Partly Cloudy
2:56 AM 32.0 °F 21.2 °F 19.4 °F 60% 29.78 in 10.0 mi ENE 16.1 mph 21.9 mph N/A   Clear
3:16 AM 32.0 °F 21.2 °F 19.4 °F 60% 29.78 in 10.0 mi East 16.1 mph - N/A   Clear
3:36 AM 35.6 °F 24.2 °F 21.2 °F 56% 29.77 in 10.0 mi ESE 21.9 mph 27.6 mph N/A   Clear
3:56 AM 33.8 °F 21.0 °F 23.0 °F 65% 29.77 in 10.0 mi ESE 25.3 mph 29.9 mph N/A   Partly Cloudy
4:16 AM 33.8 °F 22.2 °F 23.0 °F 65% 29.78 in 10.0 mi ESE 20.7 mph - N/A   Clear
4:36 AM 32.0 °F 19.8 °F 19.4 °F 60% 29.79 in 10.0 mi East 20.7 mph - N/A   Clear
4:56 AM 30.2 °F 18.9 °F 19.4 °F 64% 29.81 in 10.0 mi East 16.1 mph - N/A   Clear
5:16 AM 30.2 °F 17.8 °F 19.4 °F 64% 29.81 in 10.0 mi East 19.6 mph - N/A   Clear
5:36 AM 30.2 °F 17.8 °F 19.4 °F 64% 29.81 in 10.0 mi East 19.6 mph - N/A   Clear
5:56 AM 28.4 °F 16.6 °F 19.4 °F 69% 29.82 in 10.0 mi East 16.1 mph - N/A   Clear
6:16 AM 30.2 °F 17.8 °F 21.2 °F 69% 29.83 in 10.0 mi ENE 19.6 mph - N/A   Partly Cloudy
6:36 AM 30.2 °F 17.4 °F 23.0 °F 75% 29.82 in 10.0 mi East 20.7 mph - N/A   Partly Cloudy
6:56 AM 30.2 °F 18.5 °F 23.0 °F 75% 29.82 in 10.0 mi ENE 17.3 mph - N/A   Clear
7:16 AM 30.2 °F 18.5 °F 24.8 °F 80% 29.82 in 10.0 mi ENE 17.3 mph - N/A   Partly Cloudy
7:36 AM 30.2 °F 18.9 °F 24.8 °F 80% 29.83 in 10.0 mi ENE 16.1 mph - N/A   Clear
7:56 AM 32.0 °F 21.6 °F 24.8 °F 75% 29.83 in 10.0 mi ENE 15.0 mph - N/A   Clear
8:16 AM 32.0 °F 21.2 °F 26.6 °F 80% 29.82 in 10.0 mi ENE 16.1 mph 27.6 mph N/A   Clear
8:36 AM 32.0 °F 21.6 °F 26.6 °F 80% 29.83 in 10.0 mi East 15.0 mph - N/A   Scattered Clouds
8:56 AM 33.8 °F 22.2 °F 26.6 °F 75% 29.83 in 10.0 mi East 20.7 mph 25.3 mph N/A   Partly Cloudy
9:16 AM 33.8 °F 22.2 °F 26.6 °F 75% 29.84 in 10.0 mi East 20.7 mph 26.5 mph N/A   Mostly Cloudy
9:36 AM 33.8 °F 21.9 °F 26.6 °F 75% 29.85 in 10.0 mi East 21.9 mph - N/A   Overcast
9:56 AM 33.8 °F 21.3 °F 26.6 °F 75% 29.85 in 10.0 mi East 24.2 mph 28.8 mph N/A   Overcast
10:16 AM 33.8 °F 22.8 °F 26.6 °F 75% 29.85 in 10.0 mi East 18.4 mph 28.8 mph N/A   Scattered Clouds
10:36 AM 33.8 °F 21.9 °F 26.6 °F 75% 29.85 in 10.0 mi East 21.9 mph 26.5 mph N/A   Partly Cloudy
10:56 AM 33.8 °F 21.9 °F 26.6 °F 75% 29.86 in 10.0 mi East 21.9 mph - N/A   Mostly Cloudy
11:16 AM 35.6 °F 24.5 °F 26.6 °F 70% 29.87 in 10.0 mi East 20.7 mph - N/A   Overcast
11:36 AM 35.6 °F 26.6 °F 26.6 °F 70% 29.88 in 10.0 mi East 13.8 mph - N/A   Overcast
11:56 AM 35.6 °F 26.6 °F 26.6 °F 70% 29.88 in 10.0 mi East 13.8 mph - N/A   Overcast
12:16 PM 35.6 °F 25.2 °F 26.6 °F 70% 29.88 in 10.0 mi ESE 18.4 mph 23.0 mph N/A   Overcast
12:36 PM 37.4 °F 30.8 °F 26.6 °F 65% 29.89 in 10.0 mi East 9.2 mph 17.3 mph N/A   Overcast
12:56 PM 37.4 °F 28.9 °F 26.6 °F 65% 29.90 in 10.0 mi East 13.8 mph 17.3 mph N/A   Overcast
1:16 PM 37.4 °F 28.5 °F 26.6 °F 65% 29.89 in 10.0 mi East 15.0 mph - N/A   Overcast
1:36 PM 37.4 °F 28.2 °F 26.6 °F 65% 29.90 in 10.0 mi East 16.1 mph - N/A   Overcast
1:56 PM 35.6 °F 26.2 °F 26.6 °F 70% 29.90 in 10.0 mi East 15.0 mph - N/A   Overcast
2:16 PM 35.6 °F 25.5 °F 26.6 °F 70% 29.90 in 10.0 mi East 17.3 mph - N/A   Mostly Cloudy
2:36 PM 37.4 °F 29.8 °F 26.6 °F 65% 29.91 in 10.0 mi East 11.5 mph - N/A   Overcast
2:56 PM 37.4 °F 28.5 °F 28.4 °F 70% 29.91 in 10.0 mi East 15.0 mph - N/A   Overcast
3:16 PM 37.4 °F 28.5 °F 28.4 °F 70% 29.92 in 10.0 mi East 15.0 mph 20.7 mph N/A   Overcast
3:36 PM 37.4 °F 29.3 °F 28.4 °F 70% 29.92 in 10.0 mi ESE 12.7 mph - N/A   Overcast
3:56 PM 37.4 °F 28.5 °F 28.4 °F 70% 29.91 in 10.0 mi East 15.0 mph - N/A   Overcast
4:16 PM 37.4 °F 28.2 °F 28.4 °F 70% 29.91 in 10.0 mi East 16.1 mph - N/A   Overcast
4:36 PM 37.4 °F 29.3 °F 28.4 °F 70% 29.92 in 10.0 mi East 12.7 mph - N/A   Overcast
4:56 PM 37.4 °F 30.3 °F 28.4 °F 70% 29.92 in 10.0 mi East 10.4 mph - N/A   Overcast
5:16 PM 37.4 °F 29.3 °F 28.4 °F 70% 29.92 in 10.0 mi East 12.7 mph - N/A   Overcast
5:36 PM 37.4 °F 29.3 °F 28.4 °F 70% 29.93 in 10.0 mi ESE 12.7 mph - N/A   Overcast
5:56 PM 37.4 °F 29.8 °F 28.4 °F 70% 29.93 in 10.0 mi East 11.5 mph - N/A   Overcast
6:16 PM 37.4 °F 29.8 °F 28.4 °F 70% 29.93 in 10.0 mi ESE 11.5 mph - N/A   Overcast
6:36 PM 37.4 °F 30.3 °F 28.4 °F 70% 29.94 in 10.0 mi ESE 10.4 mph - N/A   Overcast
6:56 PM 37.4 °F 31.4 °F 28.4 °F 70% 29.95 in 10.0 mi SSE 8.1 mph - N/A   Overcast
7:16 PM 37.4 °F 31.4 °F 28.4 °F 70% 29.96 in 10.0 mi South 8.1 mph - N/A   Overcast
7:36 PM 35.6 °F 28.6 °F 28.4 °F 75% 29.96 in 10.0 mi South 9.2 mph - N/A   Overcast
7:56 PM 35.6 °F 28.6 °F 28.4 °F 75% 29.97 in 10.0 mi South 9.2 mph - N/A   Overcast
8:16 PM 33.8 °F 26.4 °F 28.4 °F 81% 29.98 in 10.0 mi SSW 9.2 mph - N/A   Overcast
8:36 PM 35.6 °F 29.2 °F 28.4 °F 75% 29.98 in 10.0 mi South 8.1 mph - N/A   Overcast
8:56 PM 33.8 °F 26.4 °F 28.4 °F 81% 29.99 in 10.0 mi South 9.2 mph - N/A   Overcast
9:16 PM 33.8 °F 25.3 °F 28.4 °F 81% 29.99 in 10.0 mi SSW 11.5 mph - N/A   Overcast
9:36 PM 33.8 °F 25.8 °F 28.4 °F 81% 30.00 in 10.0 mi SW 10.4 mph - N/A   Overcast
9:56 PM 33.8 °F 27.0 °F 28.4 °F 81% 30.01 in 10.0 mi SW 8.1 mph - N/A   Overcast
10:16 PM 32.0 °F 25.6 °F 28.4 °F 87% 30.02 in 6.0 mi WSW 6.9 mph - N/A   Overcast
10:36 PM 32.0 °F 26.4 °F 28.4 °F 87% 30.02 in 9.0 mi WSW 5.8 mph - N/A   Overcast
10:56 PM 32.0 °F 27.5 °F 28.4 °F 87% 30.03 in 10.0 mi WSW 4.6 mph - N/A   Overcast
11:16 PM 32.0 °F 27.5 °F 28.4 °F 87% 30.03 in 8.0 mi WSW 4.6 mph - N/A   Overcast
11:36 PM 30.2 °F 26.7 °F 28.4 °F 93% 30.03 in 9.0 mi SW 3.5 mph - N/A   Overcast
11:56 PM 30.2 °F 26.7 °F 28.4 °F 93% 30.04 in 10.0 mi West 3.5 mph - N/A   Overcast